Weather in Trang

Thailand     7°33′43″N   99°36′34″E
temp.,
°C
wind,
m/s
gust,
m/s
humid.,
%
clouds,
%
prec.,
mm/h
press.,
hPa
HPBL,
m
22 october, fri
fri2201:00+23ene009682 0.0 101213
04:00+23n1195100 0.0 101112
07:00+23ne119373 0.0 101221
10:00+29se0167100 0.0 1014611
13:00+33ssw125393 0.3 10111766
16:00+27wsw138389 2.4 1009282
19:00+24nw009299 4.8 101211
22:00+24ne009498 0.2 101412
23 october, sat
sat2301:00+24ene019519 0.2 101212
04:00+23ne119633 0.2 101115
07:00+24ene119466 0.4 101346
10:00+31e116311 0.1 1014901
13:00+30wsw226858 1.6 1010967
16:00+28wsw128557 4.1 1009218
19:00+25ene009264 6.1 101111
22:00+25ne119387 0.5 101311
24 october, sun
sun2401:00+24ne009685 0.6 101111
04:00+23nne119790 0.0 101013
07:00+24ne119530 0.0 101252
10:00+30ne126455 0.0 1013932
13:00+30e127098 1.6 1010999
16:00+26ene1289100 6.8 100879
19:00+25e119497 9.0 101019
22:00+24ne149585 0.0 1012118
25 october, mon
mon2501:00+24ne129696 0.0 101055
04:00+23nne119748 0.0 100928
07:00+24ne119693 0.0 101057
10:00+29ne127230 0.0 1011723
13:00+29ene117796 3.8 1008806
16:00+28e018698 5.8 1007246
19:00+24e119396 9.8 100811
22:00+24ene119736 0.3 101035
26 october, tue
tue2601:00+23ne119797 0.3 100921
04:00+23nne119899 0.0 100822
07:00+24ne119662 0.0 100964
10:00+30ne126678 0.0 1011893
13:00+30se017284 1.2 1008956
16:00+29ene127872 2.3 1006626
19:00+25ene01949 4.1 100811
22:00+24ne11967 0.0 101022